Погода в Арендале

Норвегия     58°27′41″N   8°45′48″E
темп.,
°C
ветер,
м/с
пор.,
м/с
влажн.,
%
обл.,
%
осадки,
мм/ч
давл.,
гПа
погр.,
м
28 июля, ср
ср2823:00+16св259795 1.6 1008171
02:00+15св2498100 2.6 1007123
05:00+16всв119765 1.3 100657
08:00+18юз129198 1.8 1005189
11:00+19ююз347699 1.3 1005812
14:00+17ююз4688100 2.7 1005553
17:00+17юв248890 0.9 1005590
20:00+17в139336 2.4 1003269
29 июля, чт
чт2923:00+14ю119521 0.8 100356
02:00+13в019698 1.8 100153
05:00+14в1297100 4.4 999109
08:00+16юз1289100 9.4 997134
11:00+16ююз0083100 3.3 997117
14:00+17юз3377100 4.2 996699
17:00+17зюз4774100 0.6 996588
20:00+17зюз497674 0.6 995620
30 июля, пт
пт3023:00+14зюз61385100 0.0 995473
02:00+14зюз51180100 0.0 995342
05:00+14з2583100 0.1 994150
08:00+15зсз2481100 0.1 994117
11:00+22з235290 0.0 995596
14:00+26юз344156 0.0 9951709
17:00+24зюз664747 0.0 9951306
20:00+19зюз610671 0.0 995698
31 июля, сб
сб3123:00+15зюз6148280 0.0 995594
02:00+15юз61289100 0.0 994514
05:00+14юз4992100 0.1 993384
08:00+15зюз128199 0.3 992351
11:00+18ссв2473100 0.1 992883
14:00+20с246379 0.3 9921071
17:00+19вюв217294 1.1 993474
20:00+17в348086 1.8 994249
1 августа, вс
вс123:00+15всв378897 0.1 995387
02:00+14св369199 0.4 996334
05:00+13с249196 0.2 997213
08:00+14ссз1287100 0.3 998203
11:00+15св1371100 0.1 1000774
14:00+16в236691 0.2 1001876
17:00+15всв247399 0.4 1001655
20:00+15св3576100 0.8 1002720